Wind_Speed
12 12 12 11 11 12 13 14 14 13 14 14 14 14 14 14 14 15 15 15 15 15 16 16 17 17 17 18 18 18 19 19 18 18 18 18 18 19 19 19 20 20 21
14 14 13 13 14 14 14 15 15 15 16 16 16 16 16 16 17 17 17 18 18 18 18 19 19 19 19 19 19 19 19 19 19 18 19 20 20 20 20 21 21 21 22
15 16 16 16 16 17 17 18 18 18 18 18 17 17 17 18 18 18 19 19 20 20 21 21 21 21 21 21 21 21 21 21 21 21 21 21 22 22 23 22 23 23 24
17 18 18 18 19 19 20 20 21 20 20 19 19 19 19 20 20 20 21 22 22 23 23 23 23 23 22 23 23 23 23 23 23 23 24 24 24 24 24 25 24 25 25
20 20 20 20 21 21 22 21 21 21 21 21 22 22 22 22 22 22 23 23 24 24 24 24 24 24 25 25 25 26 26 25 25 26 25 25 25 26 26 27 27 27 27
21 21 22 22 22 23 23 22 22 22 22 23 23 24 24 24 25 25 25 25 25 25 25 25 26 26 27 28 28 28 28 28 28 28 27 27 27 27 28 28 28 28 28
22 23 23 23 23 23 23 23 23 23 22 23 24 25 25 25 26 26 27 27 27 27 27 27 28 29 30 30 30 31 30 30 30 29 29 29 29 29 30 30 31 31 30
24 24 24 24 24 24 24 24 24 24 24 25 25 26 26 27 28 28 28 29 29 29 29 30 30 31 31 31 31 31 30 30 30 30 31 31 31 32 33 33 34 34 32
25 26 26 26 26 26 25 26 26 26 26 26 27 27 27 28 28 29 30 30 30 31 32 32 33 33 33 33 33 33 33 33 33 33 33 34 34 34 35 35 36 35 35
26 27 27 27 27 27 27 27 27 27 27 28 29 29 28 29 29 30 30 31 31 32 33 33 34 35 35 35 35 35 35 35 35 35 35 36 36 36 36 37 37 36 36
26 26 26 27 27 27 27 27 27 27 28 29 30 30 30 30 30 31 32 32 33 33 33 33 34 35 35 36 37 37 37 37 37 37 37 37 38 38 38 38 38 37 37
26 26 26 27 27 27 26 27 28 29 29 29 30 30 30 30 31 31 31 32 32 32 33 33 34 35 35 36 37 37 37 38 38 38 39 39 39 39 39 39 39 38 38
26 26 26 26 26 25 26 27 28 28 29 29 29 30 30 30 30 31 31 31 32 33 33 34 34 35 36 36 37 36 36 37 38 38 39 39 39 39 40 39 39 39 40
25 25 25 25 25 26 27 27 27 28 28 28 28 29 29 29 29 30 31 32 32 33 34 34 35 35 36 36 37 37 38 38 39 39 39 39 39 40 40 40 40 41 40
24 24 25 26 26 26 27 27 27 28 29 28 28 28 29 29 29 31 31 31 32 33 34 35 35 36 37 38 39 39 39 40 40 41 41 40 40 40 40 40 41 41 41
25 25 26 26 26 26 26 27 27 28 28 28 28 29 29 28 29 30 31 32 33 33 34 35 36 37 38 38 39 39 40 41 41 41 41 41 40 40 41 41 41 41 41
26 26 26 26 27 26 27 27 27 28 28 28 28 29 29 29 30 30 31 32 33 34 35 36 36 37 37 38 38 38 39 39 40 40 41 40 40 40 41 41 41 41 40
26 26 26 27 27 27 27 27 27 27 28 28 28 28 28 29 30 31 32 33 33 34 35 35 35 35 36 37 37 37 37 37 37 38 39 38 38 38 39 40 40 40 40
26 26 26 26 27 26 26 27 27 27 28 28 27 28 29 30 31 32 33 33 33 34 35 36 35 35 36 35 36 36 36 36 37 37 36 37 37 38 38 38 38 39 39
26 25 24 25 26 25 25 26 26 27 28 27 27 28 30 31 32 32 33 33 33 34 35 35 34 34 35 35 35 35 36 35 36 36 36 36 36 36 36 36 37 38 38
24 24 24 25 26 26 26 27 27 28 28 28 29 30 30 31 31 32 33 33 33 34 34 34 34 35 34 34 34 35 35 34 35 35 34 34 34 34 34 35 36 36 37
24 25 26 26 27 27 27 27 28 28 29 29 29 30 31 31 31 32 32 33 34 35 35 34 34 34 34 34 35 34 34 34 34 34 35 35 34 35 35 35 36 37 37
25 26 26 26 26 27 27 27 28 28 28 29 29 30 30 31 31 32 32 32 33 33 34 34 34 34 34 34 34 34 34 35 36 36 36 36 35 35 36 36 36 37 37
25 25 25 25 26 27 27 27 28 28 28 28 28 29 30 31 31 31 31 32 32 33 33 34 34 33 34 34 35 34 35 35 36 35 35 35 34 35 35 35 35 35 35
24 24 24 26 26 27 27 27 27 28 28 28 28 30 31 31 31 31 31 32 33 33 34 34 34 34 35 35 35 35 35 36 36 35 34 34 34 34 34 34 34 34 33
24 24 25 26 27 27 27 27 27 27 27 28 29 30 31 30 30 31 31 32 32 33 33 34 34 34 35 35 35 35 35 35 34 34 33 33 33 32 32 32 31 31 31
Wind_Direction
296 293 293 291 292 292 294 295 293 291 292 293 294 296 299 299 300 300 299 299 300 300 299 299 299 298 298 296 294 293 295 296 295 293 295 294 292 291 290 289 288 287 287
293 293 291 289 288 288 289 290 289 287 288 290 290 292 293 294 295 297 297 299 300 300 300 300 299 298 297 296 294 292 293 295 295 294 292 292 291 290 290 289 287 286 286
287 288 288 285 285 287 287 286 285 285 285 287 287 288 290 291 293 294 294 297 298 298 298 298 298 299 298 297 295 294 293 291 292 292 291 290 288 289 288 289 288 287 286
284 283 284 284 284 287 287 285 284 283 284 285 287 289 290 290 290 291 292 293 295 295 296 296 296 297 295 294 293 294 293 292 291 291 290 289 287 287 287 288 288 287 286
283 282 283 284 285 286 287 286 284 283 285 285 287 289 289 288 289 289 289 290 292 293 294 294 294 294 293 292 291 291 291 292 292 291 290 290 288 286 287 287 287 287 286
282 281 282 283 284 285 284 282 284 284 287 288 288 288 287 288 289 288 288 288 289 291 292 292 292 292 291 291 290 290 290 291 292 291 289 290 289 287 286 286 285 285 285
284 283 283 283 283 282 281 281 282 284 286 288 289 288 288 288 288 289 289 288 289 289 290 290 290 291 290 289 289 289 288 289 290 290 290 290 289 289 288 288 288 287 285
284 284 282 282 283 282 280 280 283 283 285 288 290 289 288 288 289 289 289 289 290 289 290 291 291 290 292 292 290 288 286 287 289 289 290 290 289 289 289 288 287 286 284
284 283 282 282 283 282 281 280 281 281 282 286 289 289 289 289 288 288 287 288 289 289 289 289 290 291 291 291 290 289 287 287 288 289 289 289 288 288 288 288 287 285 283
285 283 281 280 282 282 282 282 282 282 283 285 288 288 288 289 288 287 287 287 288 288 288 289 289 290 290 290 289 288 288 288 287 287 289 288 287 287 287 287 286 284 283
284 282 283 282 282 282 282 282 283 284 285 286 287 288 287 289 289 288 288 287 288 288 289 290 290 289 289 289 288 288 288 288 287 288 288 288 288 286 286 285 284 283 282
284 284 284 283 281 280 281 282 283 285 286 286 287 288 288 288 288 288 288 288 288 289 291 290 290 291 290 290 289 289 289 288 287 287 288 289 288 286 286 285 284 283 282
282 282 283 283 282 281 282 283 285 286 288 288 288 288 289 288 288 288 289 290 290 290 291 291 291 291 291 292 292 291 290 289 289 288 289 288 287 286 285 284 283 282 282
281 282 283 284 284 284 285 286 287 287 287 287 288 290 290 289 290 290 290 290 291 292 292 292 292 292 292 292 291 291 290 290 290 290 289 288 287 285 284 283 282 281 281
281 283 285 285 285 286 287 288 289 289 289 289 290 290 291 292 291 292 293 294 294 294 294 293 292 292 292 292 292 291 290 290 289 289 289 288 287 286 285 284 283 282 281
282 283 284 286 286 286 288 289 289 291 291 291 292 292 292 294 294 294 295 296 297 297 297 296 295 294 294 294 294 294 292 290 288 288 288 287 285 285 285 285 284 283 282
282 283 283 284 286 286 287 289 290 291 292 292 292 292 292 294 295 295 296 297 298 298 298 298 298 298 298 297 296 295 294 292 291 290 289 288 286 286 286 285 285 284 283
281 281 282 284 286 288 289 290 290 291 291 291 292 293 293 294 295 296 297 298 299 300 300 300 299 299 299 299 297 296 295 294 293 292 290 288 287 287 286 284 283 282 283
281 281 283 285 287 289 290 291 291 291 290 290 291 293 295 296 297 297 298 299 300 300 301 302 302 301 300 298 297 297 296 295 295 294 292 291 289 287 286 286 285 283 283
282 283 284 285 288 290 292 293 292 291 291 291 292 294 295 296 297 298 299 300 301 302 303 302 302 303 302 300 299 299 298 297 297 297 295 293 291 290 288 288 287 285 284
280 282 284 285 288 291 291 291 291 292 293 292 293 295 296 297 298 298 299 300 301 303 303 302 302 302 302 302 302 302 302 300 299 298 297 296 294 293 292 291 290 288 286
279 282 284 287 289 290 291 293 295 294 294 294 295 296 296 297 298 297 299 300 299 302 304 304 304 304 304 303 303 303 302 302 301 299 298 297 295 293 293 293 292 290 287
280 282 284 286 288 290 292 293 295 297 298 298 299 301 301 301 301 300 300 301 303 305 306 305 305 306 305 305 305 305 305 305 303 301 300 297 295 294 293 292 291 291 289
282 282 283 286 288 291 293 294 296 298 298 300 301 302 303 303 303 303 304 304 305 305 306 305 305 305 306 306 306 306 306 306 306 305 303 300 297 295 294 293 293 293 291
282 282 283 286 288 290 292 293 296 299 301 302 303 304 305 305 304 304 305 305 305 306 305 306 306 306 306 306 306 306 305 305 305 304 304 302 300 298 296 294 293 293 292
281 284 286 288 288 290 292 295 298 300 301 302 303 304 304 304 304 305 305 305 305 306 306 306 306 306 306 305 306 305 305 305 304 304 304 303 302 301 300 299 297 296 294
Height
5880 5880 5880 5880 5879 5879 5879 5879 5879 5878 5878 5878 5877 5877 5876 5876 5875 5874 5873 5873 5872 5871 5870 5869 5868 5867 5866 5865 5864 5862 5861 5860 5859 5858 5857 5856 5855 5854 5854 5853 5852 5851 5850
5877 5877 5877 5877 5877 5877 5876 5876 5875 5875 5875 5874 5874 5873 5873 5872 5872 5871 5870 5869 5868 5867 5866 5865 5864 5863 5862 5860 5859 5858 5856 5855 5854 5853 5852 5851 5850 5849 5848 5847 5846 5846 5845
5874 5874 5874 5873 5873 5873 5873 5872 5872 5871 5870 5870 5870 5869 5869 5868 5867 5867 5866 5865 5864 5863 5861 5860 5859 5858 5856 5855 5854 5853 5851 5850 5849 5848 5847 5846 5845 5844 5843 5842 5840 5839 5838
5870 5870 5870 5870 5869 5869 5868 5867 5867 5866 5866 5866 5865 5864 5864 5863 5862 5862 5861 5860 5859 5857 5856 5855 5853 5852 5851 5849 5848 5847 5846 5844 5843 5842 5841 5840 5839 5837 5836 5835 5834 5833 5831
5865 5865 5865 5865 5864 5863 5863 5862 5862 5861 5861 5860 5860 5859 5859 5858 5857 5856 5855 5854 5853 5852 5850 5849 5848 5846 5845 5843 5842 5841 5840 5838 5837 5835 5834 5833 5832 5831 5829 5828 5827 5825 5824
5860 5860 5860 5860 5859 5858 5857 5857 5856 5856 5855 5854 5854 5853 5852 5851 5851 5849 5849 5848 5847 5845 5844 5843 5842 5840 5839 5837 5835 5834 5833 5832 5830 5828 5827 5826 5825 5823 5821 5819 5818 5817 5816
5855 5854 5854 5854 5853 5852 5851 5850 5850 5850 5849 5848 5848 5847 5846 5844 5843 5842 5841 5840 5839 5838 5837 5835 5834 5833 5831 5830 5828 5827 5825 5824 5823 5821 5819 5817 5816 5815 5813 5812 5810 5808 5807
5849 5849 5848 5848 5847 5846 5845 5845 5844 5843 5842 5841 5840 5839 5838 5837 5836 5835 5834 5833 5831 5830 5829 5827 5826 5824 5823 5821 5820 5818 5817 5816 5814 5812 5811 5809 5808 5806 5804 5803 5801 5799 5798
5843 5843 5842 5841 5840 5839 5838 5838 5837 5836 5835 5834 5833 5831 5830 5828 5827 5826 5825 5824 5823 5822 5821 5819 5817 5815 5814 5812 5811 5810 5808 5807 5805 5803 5802 5800 5798 5796 5794 5792 5791 5789 5788
5837 5836 5835 5834 5833 5833 5831 5831 5830 5829 5828 5827 5826 5824 5822 5820 5819 5817 5816 5815 5814 5813 5812 5810 5808 5807 5805 5803 5801 5800 5798 5797 5795 5793 5791 5790 5788 5786 5784 5782 5780 5778 5777
5829 5829 5827 5826 5826 5825 5824 5823 5822 5821 5820 5819 5817 5816 5814 5812 5810 5809 5808 5806 5805 5804 5802 5801 5799 5797 5795 5793 5791 5790 5788 5786 5784 5783 5781 5779 5777 5775 5773 5771 5769 5767 5766
5822 5821 5820 5819 5818 5817 5817 5816 5814 5813 5812 5810 5809 5807 5806 5804 5802 5800 5799 5797 5795 5794 5793 5791 5789 5787 5785 5783 5781 5779 5777 5775 5773 5771 5769 5768 5766 5764 5762 5760 5757 5756 5754
5815 5814 5812 5811 5810 5809 5809 5808 5806 5805 5803 5802 5800 5799 5797 5795 5793 5791 5790 5788 5786 5785 5783 5781 5778 5776 5774 5772 5769 5768 5766 5764 5762 5760 5758 5756 5754 5752 5750 5748 5746 5745 5743
5808 5807 5805 5804 5803 5802 5801 5799 5798 5796 5795 5793 5792 5790 5788 5787 5785 5783 5781 5779 5777 5775 5773 5771 5768 5766 5764 5761 5759 5757 5754 5752 5750 5748 5746 5744 5742 5740 5738 5736 5735 5733 5731
5800 5799 5798 5797 5795 5794 5792 5791 5790 5788 5787 5785 5784 5782 5780 5778 5776 5774 5772 5770 5768 5765 5763 5761 5758 5756 5753 5750 5748 5745 5742 5740 5738 5736 5733 5731 5729 5727 5725 5724 5722 5720 5719
5793 5792 5791 5789 5788 5786 5785 5784 5782 5781 5779 5777 5775 5774 5772 5770 5768 5766 5763 5761 5758 5756 5753 5750 5747 5745 5742 5739 5736 5733 5730 5728 5725 5723 5721 5718 5716 5714 5712 5710 5709 5707 5706
5785 5784 5783 5782 5780 5779 5777 5776 5774 5773 5771 5769 5767 5766 5764 5762 5759 5757 5755 5752 5749 5746 5743 5740 5737 5734 5731 5727 5724 5721 5718 5715 5712 5710 5708 5705 5703 5701 5699 5698 5696 5694 5692
5778 5777 5775 5774 5772 5771 5769 5768 5766 5764 5762 5761 5759 5757 5755 5753 5751 5749 5746 5744 5740 5737 5733 5730 5726 5723 5720 5717 5713 5710 5707 5704 5700 5697 5695 5693 5691 5689 5687 5685 5683 5681 5680
5770 5769 5768 5767 5765 5763 5762 5760 5758 5756 5754 5753 5751 5749 5748 5746 5743 5740 5738 5735 5731 5728 5724 5721 5717 5713 5710 5706 5703 5699 5696 5693 5689 5685 5682 5680 5678 5676 5674 5672 5670 5668 5667
5763 5762 5761 5759 5758 5756 5754 5752 5750 5748 5746 5745 5743 5742 5740 5737 5734 5732 5728 5725 5722 5718 5714 5711 5707 5703 5700 5696 5693 5689 5686 5682 5679 5675 5672 5669 5666 5664 5662 5660 5658 5656 5654
5756 5755 5754 5752 5750 5748 5747 5745 5743 5740 5738 5737 5735 5733 5731 5728 5726 5723 5720 5717 5713 5710 5706 5702 5697 5694 5690 5686 5683 5679 5675 5672 5669 5665 5661 5658 5655 5653 5650 5648 5646 5643 5641
5748 5747 5746 5745 5743 5742 5740 5737 5734 5732 5730 5728 5726 5725 5722 5719 5716 5714 5711 5707 5704 5700 5696 5692 5688 5685 5681 5677 5673 5669 5666 5662 5658 5654 5651 5648 5645 5642 5640 5637 5634 5631 5629
5741 5740 5739 5737 5736 5734 5732 5730 5727 5724 5722 5720 5718 5716 5714 5711 5707 5705 5701 5698 5694 5691 5687 5683 5679 5676 5672 5668 5664 5660 5656 5652 5648 5644 5640 5637 5634 5631 5628 5625 5622 5620 5617
5734 5732 5731 5730 5729 5727 5725 5723 5720 5718 5715 5713 5711 5708 5706 5703 5699 5696 5693 5689 5685 5682 5678 5675 5671 5667 5663 5659 5655 5650 5646 5642 5638 5633 5630 5626 5623 5620 5617 5614 5611 5608 5605
5726 5725 5724 5723 5722 5720 5718 5715 5713 5711 5708 5706 5703 5700 5697 5694 5691 5688 5684 5681 5677 5673 5669 5666 5662 5658 5654 5649 5645 5641 5636 5632 5628 5623 5620 5616 5612 5609 5606 5603 5599 5597 5594
5719 5718 5717 5716 5714 5712 5710 5708 5706 5704 5701 5698 5696 5693 5690 5686 5683 5679 5676 5672 5668 5664 5661 5657 5653 5649 5645 5640 5636 5631 5627 5623 5618 5614 5610 5606 5602 5599 5595 5592 5589 5586 5583